Tracking 18851 objects as of 25-Nov-2017
HD Live streaming from Space Station
objects crossing your sky now

FENGYUN 1C DEB

Track FENGYUN 1C DEB now!
10-day predictions


NORAD ID: 37012
Int'l Code: 1999-025ECU
Perigee: 789.9 km
Apogee: 1,112.4 km
Inclination: 98.6 °
Period: 103.9 minutes
Semi major axis: 7322 km
RCS: 0.0094 m2 (small)
Launch date: May 10, 1999
Source: People's Republic of China (PRC)
Launch site: Taiyaun Space Center, China (TSC)

Note: This is SATELLITE DEBRIS
aabbcc
Your satellite tracking list
Your tracking list is empty




NASA's NSSDC Master Catalog

Two Line Element Set (TLE):
1 37012U 99025ECU 17314.37826599  .00000649  00000-0  49803-3 0  9999
2 37012  98.5773 359.9183 0220191 184.8086 175.0958 13.85624945494719
Source of the keplerian elements: AFSPC